[[{"header":{"parameterUnit":"m.s-1","parameterCategory":1,"la1":30.2991,"la2":30.254,"lo1":-89.0895,"lo2":-89.0444,"dy":0.0017,"dx":0.0017,"nx":28,"ny":28,"refTime":"2024-02-09T09:00:00:Z","depth":0,"parameterNumber":2,"parameterNumberName":"U-component_of_WINDS"},"data":[0,0,0,0,0,0,0,0,0,0,0,0,0,0,0,0,0,0,0,0,0,0,0,0,0,0,0,0,0,0,0,0,0,0,0,0,0,0,0,0,0,0,0,0,0,0,0,0,0,0,0,0,0,0,0,0,0,0,-3.0794,-3.0795,0,-3.0924,-3.0925,-3.0927,-3.0945,-3.0944,-3.0942,-3.0941,-3.1074,-3.1079,-3.1083,0,0,0,0,0,0,0,0,0,0,0,0,0,-3.0562,-3.0566,-3.0794,-3.0795,-3.0797,-3.0924,-3.0925,-3.0927,-3.0945,-3.0944,-3.0942,-3.0941,-3.1073,-3.1078,-3.1084,0,0,0,0,0,0,0,0,0,0,0,0,0,-3.0674,-3.0567,-3.0793,-3.0821,-3.0825,-3.0923,-3.0926,-3.0928,-3.0945,-3.0944,-3.0942,-3.094,-3.1071,-3.1078,-3.1085,-3.1164,0,0,-3.1106,-3.1109,0,0,0,0,0,0,0,0,-3.0668,-3.0683,-3.0815,-3.0819,-3.0824,-3.0916,-3.0892,-3.1007,-3.0946,-3.09,-3.0941,-3.0939,-3.1023,-3.1034,-3.1062,-3.117,-3.1176,-3.1107,-3.1111,-3.1114,-3.1116,0,0,0,0,0,0,0,-3.066,-3.0677,-3.0845,-3.0817,-3.0823,-3.0827,-3.0841,-3.0914,-3.097,-3.0904,-3.0905,-3.092,-3.1025,-3.1056,-3.1066,-3.1178,-3.1106,-3.1113,-3.1117,-3.112,-3.136,-3.1362,0,0,0,0,0,0,-3.0647,-3.0671,-3.0841,-3.0849,-3.074,-3.0833,-3.0849,-3.0888,-3.0969,-3.098,-3.0922,-3.0921,-3.1044,-3.1057,-3.107,-3.1169,-3.1114,-3.112,-3.1124,-3.1358,-3.136,-3.1363,0,0,0,0,0,0,-3.0642,-3.0662,-3.0836,-3.076,-3.0783,-3.0839,-3.0883,-3.0892,-3.0922,-3.0983,-3.0993,-3.0943,-3.1044,-3.106,-3.1141,-3.1174,-3.1124,-3.113,-3.1355,-3.1358,-3.1361,-3.1368,0,0,0,0,0,0,-3.0635,-3.066,-3.069,-3.0761,-3.0787,-3.0904,-3.0886,-3.0896,-3.0934,-3.0934,-3.1005,-3.1015,-3.1043,-3.1131,-3.1148,-3.1183,-3.1135,-3.1352,-3.1356,-3.136,-3.1365,-3.1371,-3.1376,0,0,0,0,0,-3.0627,-3.0687,-3.0692,-3.0712,-3.0826,-3.0906,-3.0921,-3.0952,-3.0937,-3.0968,-3.1008,-3.1013,-3.1168,-3.1139,-3.1159,-3.1196,-3.135,-3.1355,-3.136,-3.1362,-3.137,-3.1376,0,0,0,0,0,0,-3.0618,-3.0696,-3.0703,-3.0787,-3.084,-3.0909,-3.0949,-3.0959,-3.1016,-3.1014,-3.105,-3.1066,-3.1145,-3.1179,-3.1145,-3.1278,-3.1258,-3.1267,-3.1253,-3.126,-3.1266,-3.1255,-3.1141,0,0,0,0,0,-3.0626,-3.0684,-3.075,-3.0818,-3.0844,-3.0892,-3.0928,-3.0948,-3.1004,-3.1026,-3.1071,-3.1125,-3.1186,-3.1225,-3.1285,-3.137,-3.1386,-3.1406,-3.1412,-3.1416,-3.1423,-3.1472,-3.1481,-3.1379,-3.1379,-3.1378,0,0,-3.0643,-3.0693,-3.0727,-3.0818,-3.086,-3.092,-3.091,-3.0974,-3.1019,-3.1035,-3.1114,-3.115,-3.1212,-3.1296,-3.1335,-3.1327,-3.1455,-3.1422,-3.1425,-3.143,-3.1478,-3.1488,-3.1496,-3.1382,-3.1381,-3.1381,0,0,-3.0704,-3.0748,-3.081,-3.0853,-3.0919,-3.0951,-3.0966,-3.1034,-3.1058,-3.1138,-3.1152,-3.1207,-3.1311,-3.1355,-3.1391,-3.1472,-3.1479,-3.149,-3.1519,-3.1566,-3.1574,-3.1581,-3.161,-3.162,-3.1497,-3.1497,-3.1497,0,-3.0716,-3.0807,-3.084,-3.0904,-3.0943,-3.0962,-3.1025,-3.1066,-3.1148,-3.1175,-3.1164,-3.1297,-3.134,-3.1435,-3.1455,-3.1484,-3.1502,-3.1482,-3.157,-3.1578,-3.1585,-3.1613,-3.1624,-3.1498,-3.1498,-3.1498,-3.1498,0,-3.0819,-3.0882,-3.0924,-3.1003,-3.1048,-3.111,-3.1154,-3.1195,-3.1212,-3.1245,-3.1327,-3.138,-3.1451,-3.1476,-3.1492,-3.1574,-3.1566,-3.1563,-3.1543,-3.1595,-3.1622,-3.1633,-3.15,-3.1499,-3.1499,-3.1499,0,0,-3.0876,-3.0974,-3.0989,-3.1026,-3.11,-3.115,-3.1214,-3.1284,-3.1319,-3.1375,-3.143,-3.1519,-3.1517,-3.1558,-3.1581,-3.1622,-3.1683,-3.1614,-3.1616,-3.1624,-3.1776,-3.1777,-3.1789,-3.1689,-3.1691,-3.1693,-3.1771,0,-3.0945,-3.1061,-3.1094,-3.1191,-3.125,-3.127,-3.1326,-3.1378,-3.1412,-3.1467,-3.1504,-3.1566,-3.1559,-3.1584,-3.1626,-3.1666,-3.1713,-3.1661,-3.174,-3.1743,-3.1723,-3.1803,-3.1805,-3.1876,-3.1781,-3.1783,-3.1784,0,-3.1041,-3.11,-3.1203,-3.1272,-3.1298,-3.1348,-3.1415,-3.1468,-3.1528,-3.1549,-3.1596,-3.1615,-3.1684,-3.1662,-3.1758,-3.1721,-3.1756,-3.1781,-3.1785,-3.1792,-3.1766,-3.1812,-3.1899,-3.1909,-3.1801,-3.18,-3.1799,0,-3.1072,-3.1177,-3.1253,-3.1284,-3.1365,-3.14,-3.1436,-3.1495,-3.1535,-3.1595,-3.1621,-3.1688,-3.1724,-3.1776,-3.1812,-3.1793,-3.1905,-3.1886,-3.1925,-3.1924,-3.1946,-3.1944,-3.2039,-3.197,-3.197,-3.197,-3.197,0,-3.1146,-3.1208,-3.1268,-3.1314,-3.1385,-3.1423,-3.1492,-3.1529,-3.1582,-3.1636,-3.1658,-3.1708,-3.1754,-3.1811,-3.1841,-3.1916,-3.1932,-3.1952,-3.1958,-3.1949,-3.1947,-3.1971,-3.1967,-3.1973,-3.1972,-3.1971,-3.1971,0,-3.1191,-3.1234,-3.1318,-3.1389,-3.1409,-3.1458,-3.1519,-3.1565,-3.16,-3.1669,-3.1687,-3.1742,-3.1811,-3.1853,-3.194,-3.196,-3.2042,-3.2047,-3.2021,-3.2024,-3.2061,-3.2057,-3.2174,-3.2192,-3.2112,-3.2113,-3.2113,0,-3.1235,-3.1283,-3.136,-3.1398,-3.1435,-3.1496,-3.1537,-3.1578,-3.162,-3.1694,-3.1731,-3.1801,-3.1859,-3.1968,-3.2016,-3.2082,-3.2089,-3.2126,-3.2099,-3.2089,-3.2089,-3.2086,-3.2091,-3.213,-3.213,-3.2131,-3.2131,0,-3.1307,-3.1327,-3.1386,-3.1453,-3.1503,-3.1557,-3.1612,-3.1642,-3.1692,-3.1739,-3.1809,-3.1854,-3.1944,-3.2013,-3.2085,-3.2122,-3.2135,-3.214,-3.2152,-3.2143,-3.2126,-3.2135,-3.2033,-3.2137,-3.2136,-3.2136,-3.2135,-3.2135,-3.1353,-3.1398,-3.1459,-3.1525,-3.1571,-3.1622,-3.1669,-3.171,-3.177,-3.1845,-3.1866,-3.194,-3.2001,-3.2098,-3.2137,-3.2196,-3.2191,-3.2209,-3.2213,-3.2217,-3.2218,-3.2117,-3.2209,-3.2209,-3.2209,-3.2209,-3.2209,0,-3.1427,-3.1468,-3.1528,-3.1604,-3.1656,-3.1665,-3.1727,-3.177,-3.1834,-3.189,-3.1947,-3.2029,-3.2097,-3.2151,-3.2221,-3.2258,-3.2266,-3.2275,-3.2272,-3.228,-3.2219,-3.22,-3.2267,-3.2267,-3.2267,-3.2267,-3.2267,-3.2267,-3.1471,-3.1547,-3.1573,-3.1673,-3.1714,-3.1786,-3.1821,-3.1868,-3.1913,-3.2003,-3.206,-3.2095,-3.2151,-3.2225,-3.2288,-3.2302,-3.2327,-3.2335,-3.235,-3.2291,-3.2285,-3.2278,-3.2262,-3.234,-3.234,-3.2407,-3.2408,-3.2408]},{"header":{"parameterUnit":"m.s-1","parameterCategory":1,"la1":30.2991,"la2":30.254,"lo1":-89.0895,"lo2":-89.0444,"dy":0.0017,"dx":0.0017,"nx":28,"ny":28,"refTime":"2024-02-09T09:00:00:Z","depth":0,"parameterNumber":3,"parameterNumberName":"V-component_of_WINDS"},"data":[0,0,0,0,0,0,0,0,0,0,0,0,0,0,0,0,0,0,0,0,0,0,0,0,0,0,0,0,0,0,0,0,0,0,0,0,0,0,0,0,0,0,0,0,0,0,0,0,0,0,0,0,0,0,0,0,0,0,3.4802,3.4805,0,3.5,3.5002,3.5004,3.5072,3.5071,3.507,3.5069,3.527,3.5276,3.5282,0,0,0,0,0,0,0,0,0,0,0,0,0,3.4484,3.4489,3.4802,3.4805,3.4807,3.5,3.5002,3.5005,3.5072,3.5071,3.507,3.5069,3.5268,3.5275,3.5282,0,0,0,0,0,0,0,0,0,0,0,0,0,3.4646,3.4491,3.4802,3.4864,3.4871,3.4999,3.5002,3.5006,3.5072,3.5071,3.507,3.5069,3.5266,3.5274,3.5283,3.5364,0,0,3.5311,3.5315,0,0,0,0,0,0,0,0,3.4636,3.4657,3.4852,3.486,3.4868,3.501,3.4964,3.5126,3.5072,3.4996,3.5069,3.5068,3.5184,3.52,3.524,3.5373,3.5382,3.5312,3.5318,3.5322,3.5324,0,0,0,0,0,0,0,3.4625,3.4649,3.488,3.4855,3.4865,3.4882,3.4904,3.4995,3.5094,3.5002,3.5008,3.503,3.5189,3.5231,3.5245,3.5385,3.5312,3.532,3.5326,3.5329,3.5598,3.56,0,0,0,0,0,0,3.4604,3.4639,3.4874,3.4886,3.4747,3.4889,3.4913,3.4966,3.5093,3.5112,3.5031,3.5033,3.5216,3.5234,3.5252,3.5358,3.5322,3.533,3.5335,3.5597,3.5599,3.56,0,0,0,0,0,0,3.4596,3.4624,3.4866,3.4765,3.4797,3.4896,3.4954,3.497,3.5013,3.5115,3.5133,3.5056,3.5216,3.5239,3.5337,3.5366,3.5334,3.5343,3.5595,3.5597,3.56,3.5567,0,0,0,0,0,0,3.4587,3.4621,3.4652,3.4765,3.4802,3.4947,3.4956,3.4975,3.5028,3.5032,3.5143,3.5161,3.5216,3.5323,3.5346,3.5378,3.535,3.5593,3.5596,3.5599,3.5566,3.5568,3.557,0,0,0,0,0,3.4575,3.4633,3.4653,3.4681,3.4843,3.4948,3.497,3.5033,3.503,3.5063,3.513,3.5157,3.5358,3.5332,3.5359,3.5393,3.5591,3.5595,3.5599,3.5565,3.5568,3.557,0,0,0,0,0,0,3.452,3.4649,3.4672,3.4768,3.4847,3.4959,3.5002,3.5033,3.5114,3.5114,3.5189,3.5214,3.5306,3.5359,3.5327,3.548,3.5476,3.5486,3.5442,3.5445,3.5447,3.5433,3.5357,0,0,0,0,0,3.4519,3.4594,3.4703,3.4777,3.4816,3.4902,3.495,3.4993,3.5077,3.511,3.5184,3.5264,3.5347,3.5398,3.5479,3.5574,3.5601,3.5611,3.5613,3.5614,3.5622,3.568,3.5687,3.5613,3.5613,3.5613,0,0,3.4517,3.4597,3.464,3.4768,3.4834,3.4911,3.4929,3.5009,3.5067,3.5122,3.522,3.5277,3.5372,3.5469,3.5515,3.5516,3.5649,3.5619,3.5619,3.5627,3.5685,3.5691,3.5698,3.5615,3.5615,3.5615,0,0,3.4555,3.4621,3.4693,3.4759,3.486,3.4917,3.4934,3.5043,3.5084,3.5183,3.5227,3.5297,3.5436,3.5503,3.5555,3.5622,3.5651,3.5646,3.5657,3.5712,3.5718,3.5724,3.575,3.5759,3.5653,3.5653,3.5653,0,3.454,3.4658,3.4725,3.4804,3.4861,3.4916,3.499,3.5051,3.5171,3.521,3.5209,3.5387,3.5454,3.557,3.5587,3.5626,3.565,3.5634,3.5712,3.5718,3.5724,3.5751,3.576,3.5651,3.5652,3.5652,3.5652,0,3.4637,3.4718,3.4763,3.4881,3.4943,3.5018,3.5098,3.5153,3.5191,3.5249,3.5351,3.5434,3.5535,3.5565,3.5601,3.5687,3.5685,3.5697,3.5695,3.5729,3.5755,3.5766,3.565,3.565,3.5651,3.5651,0,0,3.4643,3.48,3.4815,3.4871,3.4988,3.5052,3.5131,3.5231,3.5277,3.5359,3.5429,3.5547,3.5561,3.562,3.5665,3.5713,3.5765,3.572,3.5724,3.5728,3.5868,3.586,3.587,3.5785,3.5787,3.5789,3.5861,0,3.4697,3.4842,3.4907,3.5023,3.5101,3.5156,3.5225,3.5305,3.5362,3.5436,3.5499,3.5583,3.5592,3.5629,3.5679,3.5748,3.5795,3.5743,3.5852,3.5855,3.5829,3.5884,3.5874,3.5939,3.5872,3.5873,3.5875,0,3.4779,3.4864,3.4988,3.5099,3.5134,3.5196,3.5294,3.5364,3.5457,3.5495,3.5563,3.5607,3.5694,3.5686,3.5808,3.5772,3.5821,3.5861,3.5865,3.5879,3.5868,3.5901,3.596,3.5971,3.5891,3.589,3.5888,0,3.4775,3.492,3.5015,3.506,3.5191,3.5233,3.529,3.5381,3.5438,3.5524,3.5562,3.5656,3.5708,3.5781,3.585,3.5837,3.5967,3.5964,3.6003,3.6002,3.6029,3.6027,3.6099,3.6056,3.6056,3.6056,3.6056,0,3.483,3.4905,3.5015,3.5073,3.5159,3.5234,3.5317,3.5377,3.5459,3.553,3.5583,3.5649,3.5735,3.5813,3.5867,3.5962,3.5984,3.6019,3.6033,3.6016,3.6012,3.605,3.6048,3.6059,3.6058,3.6058,3.6057,0,3.484,3.4917,3.5024,3.514,3.5171,3.5229,3.5329,3.5389,3.5449,3.554,3.5565,3.566,3.5755,3.5831,3.5953,3.599,3.6091,3.6105,3.606,3.6068,3.6104,3.6101,3.6205,3.6224,3.6166,3.6166,3.6167,0,3.4871,3.493,3.5054,3.5106,3.5163,3.5246,3.5305,3.5381,3.5441,3.5553,3.5599,3.5698,3.5781,3.593,3.601,3.6105,3.6124,3.6154,3.6138,3.612,3.6128,3.6124,3.6132,3.6156,3.6156,3.6156,3.6156,0,3.4919,3.4955,3.5038,3.5137,3.5207,3.5287,3.5369,3.5409,3.5501,3.5565,3.5664,3.5728,3.5856,3.5954,3.6058,3.6117,3.6153,3.6161,3.6176,3.6159,3.6132,3.615,3.6067,3.6158,3.6158,3.6158,3.6158,3.6158,3.4942,3.4999,3.5096,3.5188,3.5259,3.5335,3.5398,3.5467,3.5551,3.5661,3.5701,3.5803,3.5897,3.6041,3.6101,3.6182,3.6185,3.6206,3.6211,3.6216,3.6215,3.6118,3.6201,3.6201,3.6201,3.6201,3.6201,0,3.4995,3.5061,3.5146,3.526,3.5334,3.5362,3.5455,3.5515,3.5604,3.5689,3.5771,3.5885,3.5982,3.6071,3.6172,3.622,3.6239,3.6244,3.6242,3.6256,3.6205,3.6184,3.6227,3.6227,3.6227,3.6227,3.6227,3.6227,3.5031,3.513,3.5178,3.5313,3.5378,3.5479,3.5531,3.5602,3.5671,3.5797,3.5878,3.5936,3.6024,3.6132,3.6223,3.6247,3.6282,3.6284,3.6312,3.6263,3.6259,3.6256,3.6236,3.629,3.629,3.6357,3.6357,3.6358]}]]